GFSMW_con_sbcape_021.txt.gz
CAPE
2543 2509 2512 2545 3171 3024 2977 2491 2224 1827 1482 1237 1733 1914 1271 2238 2017 2223 1688 1774 1912 1784 2364 2600 2464 2518 2281 2146 2581 2020 2213 1033 963 1571 931 622 848 1618 1554 1399 1249 1812 1700
2743 2774 2983 3113 3251 2804 2396 2171 1862 905 784 1657 1606 2080 1745 1909 2165 2540 1920 2026 1680 1552 1817 2302 2099 2331 2233 2354 2381 2293 2191 1949 2213 1049 612 388 135 658 1333 1404 2353 1731 2391
2967 2996 3087 2704 2597 2518 2034 2055 1169 855 339 911 1720 2815 2304 2314 2576 1947 981 915 988 922 1262 1298 1966 1918 2487 2407 1777 1970 1571 1740 2103 1681 652 235 86 107 1916 2087 1462 1919 2804
2921 3073 2565 2493 2337 2228 2162 1771 1797 1082 571 478 474 1777 2340 1759 1137 746 813 1063 888 661 872 1115 874 1736 2260 1875 1929 2178 1583 1807 1722 1937 1109 1625 994 660 573 2104 2200 2572 2441
2518 2201 2136 2340 2362 1387 1411 1595 1455 1048 1263 1455 2043 2252 2448 610 582 631 819 1636 1751 917 969 738 771 1061 1872 1926 1619 1884 2129 1974 1883 1595 1998 1536 465 786 750 1043 867 1477 1287
1977 1889 2180 2195 1628 1606 1230 1304 1551 1460 1487 1495 1862 1995 1038 842 766 909 716 416 370 800 972 900 1012 1526 1271 1303 1996 1859 1616 1885 844 1395 1718 1761 1079 545 814 1435 997 322 725
1837 2124 2140 1883 1804 1562 933 1164 1429 1518 1911 2024 1715 1212 1172 1008 857 1062 566 925 528 780 1450 1049 1071 1025 1127 1161 1569 1625 1375 1556 894 1161 1316 1855 770 2070 1537 1976 437 322 903
1729 1887 1874 1781 1715 1360 1377 1650 2078 2546 2532 1914 1470 1286 1079 698 608 877 715 768 801 1184 1090 1149 890 1144 699 935 1116 961 1072 1390 1109 1022 1339 1523 1233 586 896 1703 2030 1108 342
1533 1800 1768 1617 1657 1440 1488 1590 1980 2160 1996 1781 1441 1263 1056 1030 1004 896 946 621 1106 976 970 1126 1108 970 883 991 1170 1570 1236 1706 1724 1442 1190 1727 1501 683 572 830 1429 1597 293
1649 1807 1884 1789 1516 1598 1598 1860 2091 2285 2028 1518 1207 1007 890 896 973 886 1194 855 917 910 959 577 782 1037 1069 1038 1271 1674 1474 1294 1386 1432 1276 1543 2168 1890 2149 1242 740 1415 847
1986 1896 1935 1809 1566 1941 1922 2049 2264 2057 1455 1459 978 892 882 823 1411 849 874 688 707 813 699 493 370 468 868 1240 1382 983 872 975 870 751 715 741 1044 1581 2369 2505 1991 1362 1570
2150 2155 2157 1918 1685 1787 1862 1952 1762 1394 1311 1446 1225 1040 959 836 927 800 715 768 431 818 624 459 425 436 95 388 434 211 225 365 303 345 432 440 695 893 1143 1369 1207 1102 1034
2406 2374 2314 1957 1838 1871 1454 1440 1071 1192 1179 1521 1380 1062 1019 1172 1032 822 503 643 246 232 293 223 168 306 221 69 42 20 8 9 8 7 5 28 114 51 65 80 105 140 323
2612 2567 2571 2338 2188 1854 1834 1590 1164 1043 1328 1319 1202 1215 1161 1212 1102 664 421 425 174 285 208 195 96 161 48 28 19 18 15 8 8 7 8 10 9 15 12 8 14 33 23
2481 2855 2698 2255 1795 1724 1969 1855 1607 1422 1432 1414 1344 1370 1309 1119 1162 680 388 225 88 66 24 51 26 12 11 3 20 7 5 11 9 8 4 3 3 3 1 5 11 29 26
2449 2822 2153 1567 1702 2301 2175 1866 1918 1794 1441 1364 1330 1723 1587 1332 1300 719 259 275 6 13 8 9 12 8 0 0 0 3 15 1 3 11 10 8 0 0 0 0 0 0 35
2426 2703 1739 1813 2243 2135 2210 2139 2067 2278 2003 2413 1794 1681 1809 1840 1414 882 347 61 9 7 9 11 13 9 0 0 0 0 5 7 6 5 2 1 0 1 0 0 0 0 0
2622 2156 1682 2211 2516 2473 2223 2066 1701 1795 1762 1651 1482 1589 1808 1964 1693 1082 581 56 6 4 4 9 11 5 0 0 0 0 14 9 10 7 9 6 1 0 0 0 0 0 0
2644 2375 2154 2182 1804 1634 1518 1684 1600 1473 1281 847 277 208 569 1146 1033 1044 311 64 18 6 3 11 13 10 0 0 0 0 15 16 12 0 0 0 0 0 0 0 0 0 0
2730 2169 1417 1059 703 368 620 956 729 389 77 2 6 9 9 116 485 410 69 53 18 12 8 10 10 0 0 0 0 0 10 8 0 0 0 0 0 0 0 14 10 5 2
1273 1063 915 767 357 122 126 150 31 3 6 3 3 6 4 3 1 0 1 18 24 13 12 3 1 0 0 0 0 0 9 14 5 0 0 0 0 0 0 0 4 1 0
742 977 602 214 48 14 9 3 6 3 5 2 5 4 6 3 1 1 0 0 4 11 11 9 6 3 0 0 0 0 0 0 0 0 0 0 0 0 0 0 0 0 0
732 535 191 9 7 6 6 8 10 6 3 4 9 9 6 5 3 1 1 0 1 4 5 0 2 3 0 0 0 0 0 0 0 0 0 0 0 0 0 0 0 0 0
284 78 49 7 7 8 8 8 7 6 8 8 8 7 6 4 4 4 4 2 1 3 1 2 8 3 3 0 0 0 0 0 0 0 0 0 0 0 0 0 0 0 0
8 4 4 9 3 4 8 7 6 7 9 8 5 4 1 1 2 3 4 4 2 1 3 6 5 7 3 0 0 0 0 0 0 0 0 0 0 0 0 0 0 0 0
10 11 8 7 10 7 9 8 6 5 8 6 3 0 0 0 0 0 0 0 0 0 0 0 0 0 0 0 0 0 0 0 0 0 0 0 0 0 0 0 0 0 0

GFSMW_con_sbcape_024.txt.gz
CAPE
2485 2283 2164 2408 3739 3680 3605 3636 2969 3294 2169 358 195 759 1883 2500 1976 360 71 7 0 1669 1838 1954 1672 1735 1507 1612 1479 928 377 208 348 764 1377 1694 1763 1188 1083 1867 1413 1442 1386
2914 2886 3353 4010 3852 3580 3296 3408 3037 1979 2001 293 567 860 1705 2487 2555 2167 1284 726 1012 1837 2247 1772 1309 1142 957 841 1172 981 632 650 1064 796 1134 725 464 561 1346 1441 1516 1377 1493
2947 3356 3199 3875 3191 3050 3069 3058 2421 1866 1438 1376 1110 1064 1796 1611 1942 1853 2072 1588 1350 1500 1416 1472 1638 1261 1265 1007 872 862 694 577 510 1171 763 700 197 602 1250 1201 1460 1388 1809
2904 3364 3412 2895 2543 2739 2969 3289 1993 1860 1423 1032 775 1705 1488 1364 1640 2149 1981 1853 1879 1579 1245 1444 1489 1330 1284 1197 1016 1018 1013 936 866 982 758 706 918 589 247 712 1190 1451 1973
2899 2957 2914 2647 2654 2714 2435 3042 2472 2126 2007 2089 2100 2637 1975 2095 2310 1949 1921 2352 1951 1374 857 1106 1267 1294 1322 1233 1050 914 797 889 667 885 485 539 812 1117 718 642 981 1724 1481
2726 2691 2914 2860 2592 1986 1889 2024 2299 2447 2619 2486 2646 2615 2031 2173 1714 1807 1756 1058 1156 1568 1260 1387 1249 1304 1150 1191 962 1099 1183 537 577 877 683 481 419 466 563 625 802 543 703
2248 2712 2631 2786 2327 2101 1705 2005 2242 2419 2171 2523 2359 1796 1809 1710 2233 1786 1234 1664 1020 1046 1266 1393 1362 1150 1143 1210 1290 1088 961 701 657 828 834 279 459 470 470 784 717 387 652
2246 2304 2249 2311 2186 1785 1721 1830 2240 2398 2920 2745 2225 2235 1844 2164 1513 1794 1385 1427 1250 1313 1318 1283 1275 1131 1179 1137 1367 1665 1761 1659 1320 1172 1149 915 835 867 612 448 351 526 438
2082 2237 2127 2007 2170 1770 2008 2235 2915 3121 3019 2321 2487 2338 1908 1844 1750 1761 1689 1121 1438 928 1002 813 1048 1071 1326 1466 1544 1129 1006 1491 1228 1481 1423 1305 787 832 641 765 795 824 362
1811 2076 1868 1977 1947 1864 2075 2252 2681 2923 2502 2327 2221 1932 2016 1839 1062 1135 1342 1078 1079 1074 858 484 642 905 1033 1363 1501 1032 673 647 611 820 1140 553 455 855 890 619 575 964 537
1648 2251 1841 1776 1578 1508 1604 2099 2270 2703 2391 2327 2096 1854 1797 1647 1703 1107 1143 827 988 811 533 413 370 231 325 827 941 579 865 781 782 700 697 725 703 726 640 1222 848 492 351
1886 2015 1931 1809 1659 1803 1745 1855 2328 2118 1913 2456 2045 2109 2029 1614 1295 1143 1122 860 749 594 325 212 512 530 197 34 44 53 57 58 43 9 159 199 381 416 462 750 696 641 504
2489 2321 2349 2201 1911 2160 1885 446 1920 1823 1834 2202 2077 2037 2085 1720 1611 969 980 728 516 400 212 146 335 47 11 12 15 15 5 7 5 4 5 3 3 3 0 10 108 143 160
2819 2891 2833 2626 2834 2407 2220 1811 1550 1457 1754 2067 1961 2033 2038 1974 1404 1237 945 684 629 367 284 112 71 61 27 5 9 10 10 8 6 4 4 5 5 12 11 9 6 5 6
2952 3124 2989 3180 2522 2542 2446 2206 1715 1913 2162 2298 1893 2526 1593 1592 1392 1007 875 626 399 15 91 105 39 14 1 0 6 5 6 6 3 3 0 0 0 0 0 1 8 12 7
3002 3164 3103 2425 2287 2075 2569 2730 2641 2471 2568 2331 1645 2535 1917 1844 1336 1114 707 528 77 5 173 34 6 0 0 0 0 3 4 6 7 3 12 2 0 0 0 0 0 0 28
3125 3257 2447 2111 2460 2515 3319 2894 3373 3203 2589 2138 2195 1918 1712 1787 1227 1053 332 359 16 3 57 27 10 0 0 0 0 0 13 12 16 21 16 4 0 1 0 0 0 0 0
3260 2963 2106 2272 2785 2626 2959 3021 2583 2520 2109 1739 1328 1289 1216 1726 1513 1251 637 367 12 0 0 19 12 0 0 0 0 0 14 11 0 0 3 0 0 0 0 0 0 0 0
3552 2334 2450 2936 2450 2647 2434 2573 2156 2425 1297 678 509 169 43 312 1682 453 207 108 21 12 19 19 21 1 0 0 0 0 3 1 0 0 0 0 0 0 0 0 0 0 0
2953 2786 2633 1684 1700 1467 1763 1943 1193 412 118 10 0 2 4 2 619 417 74 12 22 5 10 4 0 0 0 0 0 0 9 0 0 0 0 0 0 0 0 30 18 6 7
1804 1830 1323 1016 819 632 1058 578 53 0 1 1 3 3 2 2 1 0 0 5 3 9 1 2 1 0 0 0 0 0 0 13 11 0 0 0 0 0 0 0 0 0 0
1396 1071 700 347 295 465 291 1 3 7 6 4 3 3 2 2 1 0 0 0 0 0 0 3 0 0 0 0 0 0 0 0 0 0 0 0 0 0 0 0 0 0 0
1223 421 64 7 3 56 8 7 9 6 8 7 6 4 3 2 1 1 0 0 0 0 0 0 2 1 0 0 0 0 0 0 0 0 0 0 0 0 0 0 0 0 0
535 171 28 7 4 9 3 9 7 10 6 5 4 2 1 1 1 2 1 1 1 1 0 0 1 0 0 0 0 0 0 0 0 0 0 0 0 0 0 0 0 0 0
80 53 3 7 5 9 12 6 4 4 7 5 2 1 2 1 1 1 2 3 2 1 1 0 0 1 0 0 0 0 0 0 0 0 0 0 0 0 1 0 0 3 0
10 9 14 12 8 16 7 8 11 11 10 5 1 0 0 0 0 0 0 0 0 0 0 0 0 0 0 0 0 0 0 0 0 0 0 0 7 5 8 11 9 0 0

GFSMW_con_sbcape_030.txt.gz
CAPE
1535 1538 1590 2140 2359 1965 1766 1073 605 436 204 0 8 38 80 158 432 235 44 0 0 0 0 16 383 216 110 64 6 0 0 0 1 67 0 0 108 127 59 134 446 693 530
1688 2074 2606 2717 2321 1948 1499 829 449 194 5 0 2 2 76 312 750 447 251 179 83 18 16 268 305 192 119 13 0 11 19 44 48 1 0 0 1 43 202 215 416 660 590
2611 2757 2845 2623 2454 2321 1510 973 521 189 20 1 237 269 258 336 223 178 363 389 478 414 299 69 33 9 21 36 8 0 0 1 6 3 0 0 1 10 46 239 314 590 389
2878 2779 2816 2680 2377 2243 1659 1176 871 396 105 238 207 614 354 522 215 338 147 110 80 65 81 78 83 69 35 40 30 32 14 0 1 6 79 29 24 33 37 31 155 378 426
3098 3097 2820 2639 2430 2355 1709 1184 884 820 803 301 125 137 578 526 261 115 44 43 0 83 134 179 93 16 12 53 16 19 28 0 3 0 10 40 44 46 51 51 41 123 282
2962 2637 2326 2357 2189 2148 1503 1186 946 855 590 320 433 958 527 318 260 57 69 25 34 4 17 71 68 33 42 5 3 33 46 4 0 3 27 47 33 49 86 34 40 8 13
2602 2131 1997 2140 1788 2133 1620 1331 957 992 839 1320 1302 696 525 466 87 81 49 29 0 0 0 1 44 39 97 78 14 36 15 0 0 4 44 61 43 24 50 47 35 3 0
2359 1890 1657 1333 1455 2085 1824 1341 1012 1257 1188 1208 809 596 414 285 141 54 3 1 0 0 0 0 13 25 76 74 25 16 39 2 0 0 2 13 20 64 26 30 19 21 0
1580 1825 1236 1239 1172 1463 1488 1137 1207 1289 1258 810 664 541 383 170 48 12 0 0 6 7 2 11 0 0 0 0 0 0 11 7 16 51 0 4 0 39 88 61 17 0 8
1732 1566 1340 1267 1026 1123 1314 1204 1193 1117 1323 852 757 515 206 176 39 0 0 0 0 0 7 10 1 0 0 0 0 0 0 0 1 0 0 4 7 42 68 56 102 69 1
1567 1644 1310 1225 1003 1083 1017 624 569 689 893 814 737 527 309 196 68 0 0 0 0 0 11 11 0 0 0 0 0 0 0 0 0 0 0 0 0 0 1 0 4 14 1
1238 1523 1288 1069 1022 760 514 728 871 813 762 911 594 521 295 230 96 0 0 0 0 0 0 0 0 0 0 0 0 0 0 0 0 0 0 0 0 0 0 0 0 0 0
324 1053 1135 952 608 411 399 318 15 453 653 794 587 386 333 250 100 2 0 0 0 0 0 0 0 0 0 0 0 0 0 0 0 0 0 0 0 1 0 0 0 0 0
37 799 927 768 443 93 13 124 169 395 638 677 609 539 349 189 29 2 0 0 0 0 0 0 0 0 0 0 0 0 0 0 0 0 0 0 0 0 0 1 0 0 0
15 666 685 656 292 0 0 55 84 164 853 822 685 751 444 116 4 5 0 0 0 0 0 0 0 0 0 0 0 0 0 0 0 0 0 0 0 0 0 0 0 0 0
1285 976 1059 745 514 383 154 72 115 584 982 1065 932 731 510 155 42 1 0 0 0 0 0 0 0 0 0 0 0 0 0 0 0 0 0 0 0 0 0 0 0 0 0
1645 1247 1408 1138 868 727 648 694 831 1010 1203 1124 910 737 506 253 24 0 0 0 0 0 0 0 0 0 0 0 0 0 0 0 0 0 0 0 0 0 0 0 0 0 0
1304 1323 1182 793 379 1124 1451 1166 1208 766 211 50 19 56 222 279 65 1 0 0 0 0 0 0 0 0 0 0 0 0 0 0 0 0 0 0 0 0 0 0 0 0 0
677 1334 786 637 1347 1103 453 160 30 9 0 0 0 1 0 0 229 91 0 0 0 0 0 0 0 0 0 0 0 0 0 0 0 0 0 0 0 0 0 0 0 0 0
1062 1250 1054 868 656 28 0 0 0 1 2 1 2 0 0 0 177 47 0 0 0 0 0 0 0 0 0 0 0 0 0 0 0 0 0 0 0 0 0 0 0 0 0
189 108 42 27 1 0 0 0 0 1 1 0 0 0 0 1 1 0 0 0 0 0 0 0 0 0 0 0 0 0 0 0 0 0 0 0 0 0 0 0 0 0 0
8 0 0 1 0 0 0 0 0 1 0 2 1 0 0 0 0 0 0 0 0 0 0 0 0 0 0 0 0 0 0 0 0 0 0 0 0 0 0 0 0 0 0
0 0 0 0 0 0 0 1 1 0 0 0 0 0 0 0 0 0 0 0 0 0 0 0 0 0 0 0 0 0 0 0 0 0 0 0 0 0 0 0 0 0 0
0 0 0 0 1 0 0 0 0 0 0 1 0 0 0 0 0 0 0 0 0 0 0 0 0 0 0 0 0 0 0 0 0 0 0 0 0 0 0 0 0 0 0
0 0 0 0 1 0 1 0 0 0 0 0 0 0 0 0 0 0 0 0 0 0 0 0 0 0 0 0 0 0 0 0 0 0 0 0 0 0 0 0 0 0 0
0 0 0 0 0 1 0 0 0 0 0 0 0 0 0 0 0 0 0 0 0 0 0 0 0 0 0 0 0 0 0 0 0 0 0 0 0 0 0 0 0 0 0

GFSMW_con_sbcape_033.txt.gz
CAPE
1279 1336 1565 1863 1818 1654 1536 1350 909 512 239 65 72 42 89 114 265 235 68 2 0 0 0 0 74 76 51 41 0 0 0 0 0 0 0 0 0 78 95 93 212 369 560
1462 1551 2157 2130 1907 1598 1169 718 541 281 81 2 1 1 60 241 468 458 298 80 54 0 0 1 114 23 9 0 0 1 1 0 0 0 0 2 0 0 42 71 116 203 361
1492 2285 2329 2046 1723 1487 975 667 419 188 10 15 330 197 174 244 153 156 158 118 213 164 113 59 35 2 0 0 0 0 1 0 1 0 0 0 0 1 1 122 189 291 329
1966 2300 2174 2029 1860 1564 987 480 379 128 18 249 335 372 238 294 165 127 36 24 55 83 97 81 53 4 0 0 0 0 0 0 0 1 0 1 0 0 16 6 29 107 204
2184 2326 2177 2066 2084 1599 1234 793 548 209 287 306 116 215 437 338 87 20 22 14 0 0 33 41 19 0 0 0 0 0 1 0 0 0 0 0 20 41 21 20 13 10 27
2383 1799 2401 2156 1984 1460 1151 858 690 613 531 213 453 638 343 256 108 77 57 0 0 0 0 0 0 0 0 0 0 0 0 0 0 0 0 0 9 28 19 12 17 6 9
367 11 0 1559 1796 1306 1140 852 654 636 398 841 1058 477 449 111 121 82 8 0 0 0 0 0 0 1 0 1 0 0 0 0 0 0 0 7 4 2 1 7 7 9 1
0 29 0 1111 1746 1345 1178 899 692 788 1057 996 732 337 183 95 53 26 0 0 0 0 0 0 0 1 1 0 0 0 0 0 0 0 0 0 1 15 5 1 2 8 20
97 2 532 823 1695 1512 1165 749 886 1030 969 709 425 262 175 75 49 0 0 0 0 4 14 5 0 0 0 1 1 1 1 1 0 0 0 0 0 19 45 16 6 3 0
197 1037 698 748 1281 1368 1028 766 1059 932 972 572 436 224 26 25 0 0 0 0 0 7 0 0 0 0 0 0 0 0 0 0 1 1 1 1 0 0 10 24 5 0 0
1472 1074 789 693 829 963 895 711 815 868 619 634 465 114 92 0 0 0 0 0 0 0 0 0 0 0 0 0 0 0 0 0 0 0 0 0 0 0 0 2 2 1 0
1311 1215 911 634 693 713 629 700 638 808 936 662 437 197 94 11 0 0 0 0 0 0 0 0 0 0 0 0 0 0 0 0 0 0 0 1 0 0 0 0 1 1 0
1258 1218 1000 639 623 449 575 644 349 172 471 665 343 199 132 47 0 0 0 0 0 0 0 0 0 0 0 0 0 0 0 0 0 0 0 0 0 1 1 0 1 1 1
739 1028 814 511 466 301 406 271 19 248 367 546 346 228 164 55 0 0 0 0 0 0 0 0 0 0 0 0 0 0 0 0 0 0 0 0 0 1 0 1 1 0 1
39 219 809 509 445 232 108 111 9 247 387 613 428 320 104 36 21 5 0 0 0 0 0 0 0 0 0 0 0 0 0 0 0 0 0 0 0 0 0 0 0 0 0
263 615 665 576 383 58 1 38 6 157 399 747 550 411 83 48 44 1 0 0 0 0 0 0 0 0 0 0 0 0 0 0 0 0 0 0 0 0 0 0 0 0 0
196 822 8 583 216 61 40 0 1 274 828 1049 844 626 175 96 44 0 0 0 0 0 0 0 0 0 0 0 0 0 0 0 0 0 0 0 0 0 0 0 0 0 0
118 419 8 750 492 334 220 246 157 90 194 317 283 291 261 127 38 13 0 0 0 0 0 0 0 0 0 0 0 0 0 0 0 0 0 0 0 0 0 0 0 0 0
68 718 565 411 630 268 57 58 95 43 0 0 0 0 7 136 98 54 1 0 0 0 0 0 0 0 0 0 0 0 0 0 0 0 0 0 0 0 0 0 0 0 0
549 435 487 555 327 55 103 291 345 37 0 0 1 2 0 0 70 150 0 0 0 0 0 0 0 0 0 0 0 0 0 0 0 0 0 0 0 0 0 0 0 0 0
121 139 45 42 19 0 0 53 0 0 1 0 0 0 0 1 17 1 0 0 0 0 0 0 0 0 0 0 0 0 0 0 0 0 0 0 0 0 0 0 0 0 0
1 1 0 0 0 0 0 2 0 1 3 0 0 0 1 0 1 0 0 0 0 0 0 0 0 0 0 0 0 0 0 0 0 0 0 0 0 0 0 0 0 0 0
1 1 0 0 1 0 0 0 1 0 1 0 0 1 1 0 0 0 0 0 0 0 0 0 0 0 0 0 0 0 0 0 0 0 0 0 0 0 0 0 0 0 0
0 0 0 0 1 1 1 0 1 0 8 8 8 0 0 0 0 0 0 0 0 0 0 0 0 0 0 0 0 0 0 0 0 0 0 0 0 0 0 0 0 0 0
0 0 0 0 1 1 1 1 6 1 0 2 0 0 0 0 0 0 0 0 0 0 0 0 0 0 0 0 0 0 0 0 0 0 0 0 0 0 0 0 0 0 0
0 0 0 0 0 0 0 0 0 0 0 0 0 0 0 0 0 0 0 0 0 0 0 0 0 0 0 0 0 0 0 0 0 0 0 0 0 0 0 0 0 0 0

GFSMW_con_sbcape_036.txt.gz
CAPE
1170 1047 1222 1418 1354 1295 1315 1153 875 362 267 47 17 2 69 90 253 135 48 10 0 0 0 0 0 104 106 101 16 1 2 2 1 0 0 0 16 79 154 190 257 458 815
1281 1235 1599 1586 1387 1206 1233 802 380 169 62 0 0 4 75 128 223 85 260 156 117 16 0 0 45 43 41 22 3 2 3 2 2 0 0 39 20 1 61 148 232 268 437
1320 1750 1812 1581 1352 1068 932 564 380 104 4 6 129 121 91 130 124 60 74 62 88 75 34 18 9 0 0 0 0 1 3 1 5 0 22 0 22 5 2 82 165 332 380
608 29 0 0 119 781 668 424 196 21 9 172 183 189 236 231 110 56 0 3 5 7 7 6 18 12 0 0 0 0 2 2 2 17 3 2 0 0 0 38 7 199 199
538 74 1 0 0 0 335 293 155 35 47 144 346 360 311 157 49 0 14 0 0 0 0 0 0 0 0 0 0 1 8 3 2 3 5 31 94 121 114 43 24 56 59
394 8 2 0 1 3 466 551 213 68 114 120 356 417 261 104 87 37 1 0 0 0 0 0 0 1 1 11 0 0 2 5 2 1 0 1 90 128 33 9 15 3 61
383 178 116 55 0 3 764 556 236 369 108 124 753 260 205 63 52 3 0 0 0 0 0 0 2 2 4 1 0 0 0 1 2 1 2 9 69 54 106 36 11 26 4
42 103 29 0 0 596 798 560 285 263 472 787 371 164 61 65 2 0 0 0 0 0 12 0 1 2 3 4 1 2 4 1 0 0 1 32 84 170 77 58 52 4 5
44 90 75 636 1452 1140 734 374 262 558 691 427 164 154 77 39 0 0 0 0 0 1 0 0 0 0 0 1 2 2 2 2 4 2 0 1 14 117 125 56 69 105 3
77 154 574 1074 1509 1059 667 277 561 655 353 173 158 121 42 7 0 0 0 0 0 0 0 0 0 0 0 0 0 1 1 1 3 3 4 5 9 17 91 29 67 86 12
180 676 921 795 1145 943 453 444 604 391 249 301 158 89 57 0 0 0 0 0 0 0 0 0 0 0 0 0 0 0 0 0 1 1 1 3 2 4 4 75 131 45 16
586 1085 838 586 680 735 397 635 634 539 556 523 241 140 48 0 0 0 0 0 0 0 0 0 0 0 0 0 0 0 1 1 1 1 2 0 2 1 3 4 5 21 3
1007 1013 725 489 483 446 425 637 591 464 415 344 273 181 104 23 0 0 0 0 0 0 0 0 0 0 0 0 0 0 1 1 0 0 1 3 4 2 1 3 2 3 3
260 801 593 178 186 282 380 403 65 319 403 501 297 147 101 52 8 0 0 0 0 0 0 0 0 0 0 0 0 0 0 0 0 0 0 1 2 2 2 2 1 3 2
14 151 527 236 121 24 47 19 0 135 282 568 479 149 74 42 12 11 0 0 0 0 0 0 0 0 0 0 0 0 0 0 0 0 0 0 2 2 1 0 1 2 3
202 229 232 263 29 0 0 0 1 9 227 552 594 195 116 74 19 9 0 0 0 0 0 0 0 0 0 0 0 0 0 0 0 0 0 0 0 0 0 0 0 0 1
139 466 580 14 0 0 0 10 1 29 172 548 512 395 163 134 30 0 0 0 0 0 0 0 0 0 0 0 0 0 0 0 0 0 0 0 0 0 0 0 0 0 0
25 403 537 57 97 15 0 0 133 190 274 391 659 503 278 158 32 0 0 0 0 0 0 0 0 0 0 0 0 0 0 0 0 0 0 0 0 0 0 0 0 0 0
51 310 514 715 100 0 36 52 112 93 83 3 21 20 184 128 59 6 0 0 0 0 0 0 0 0 0 0 0 0 0 0 0 0 0 0 0 0 0 0 0 0 0
205 360 524 570 562 228 92 67 58 0 0 1 2 0 0 17 101 32 0 0 0 0 0 0 0 0 0 0 0 0 0 0 0 0 0 0 0 0 0 0 0 0 0
34 144 66 8 1 0 15 54 0 2 2 2 1 0 1 1 0 25 0 0 0 0 0 0 0 0 0 0 0 0 0 0 0 0 0 0 0 0 0 0 0 0 0
2 2 1 1 1 0 1 1 2 2 2 3 1 2 1 3 1 0 1 1 0 0 0 0 0 0 0 0 0 0 0 0 0 0 0 0 0 0 0 0 0 0 0
1 1 1 1 1 1 2 2 4 8 2 5 5 2 0 0 1 1 1 1 0 0 0 0 0 0 0 0 0 0 0 0 0 0 0 0 0 0 0 0 0 0 0
0 0 0 1 1 2 1 1 7 4 2 1 1 0 0 0 0 0 0 0 0 0 0 0 0 0 0 0 0 0 0 0 0 0 0 0 0 0 0 0 0 0 0
0 0 0 0 1 1 1 1 1 0 2 3 4 0 0 0 0 0 0 0 0 0 0 0 0 0 0 0 0 0 0 0 0 0 0 0 0 0 0 0 0 0 0
0 0 0 0 1 0 1 0 0 0 0 0 0 0 0 0 0 0 0 0 0 0 0 0 0 0 0 0 0 0 0 0 0 0 0 0 0 0 0 0 0 0 0